Regional Weather Roundup
Issued by NWS Newport/Morehead, NC

Current Version | Previous Version | Text Only | Print | Product List | Glossary Off
Versions: 1 2 3 4 5 6 7 8 9 10 11 12 13 14 15 16 17 18 19 20 21 22 23 24 25 26 27 28 29 30 31 32 33 34 35 36 37 38 39 40 41 42 43 44 45 46 47 48 49 50
000 ASUS42 KMHX 280213 RWRMHX WEATHER ROUNDUP FOR EASTERN NORTH CAROLINA NATIONAL WEATHER SERVICE NEWPORT/MOREHEAD CITY NC 1000 PM EDT THU AUG 27 2015 NOTE: "FAIR" INDICATES FEW OR NO CLOUDS BELOW 12,000 FEET WITH NO SIGNIFICANT WEATHER AND/OR OBSTRUCTIONS TO VISIBILITY NCZ015>017-031-032-045>047-102-103-280300- NORTH COAST CITY SKY/WX TMP DP RH WIND PRES REMARKS EDENTON CLOUDY 70 63 78 E3 30.11R ELIZABETH CITY CLOUDY 73 62 68 NE8 30.11R KITTY HAWK CLOUDY 76 62 62 NE5 30.10R MANTEO RAIN 71 62 74 E13 30.11R $$ NCZ045>047-081-094-103-104-280300- CENTRAL COAST CITY SKY/WX TMP DP RH WIND PRES REMARKS FRISCO CLOUDY 71 69 93 NE6 30.08R SWANQUARTER NOT AVBL $$ NCZ095-097-098-100-101-280300- SOUTHERN COAST CITY SKY/WX TMP DP RH WIND PRES REMARKS BEAUFORT CLOUDY 71 71 100 NE8 30.08R CEDAR ISLAND NOT AVBL JACKSONVILLE CLOUDY 73 65 75 NE6 30.07S PINEY ISLAND CLOUDY N/A N/A N/A NE16G22 30.07R WILMINGTON CLOUDY 74 68 81 NE9 30.07R $$ NCZ011>013-027>030-043-044-078>080-089-090>093-098-280300- COASTAL PLAIN CITY SKY/WX TMP DP RH WIND PRES REMARKS AHOSKIE MOCLDY 67 64 89 CALM 30.12R CLINTON CLOUDY 72 66 82 E3 30.09R ELIZABETHTOWN MOCLDY 72 64 74 CALM 30.08R GOLDSBORO CLOUDY 69 66 90 NE5 30.08S GREENVILLE MOCLDY 70 64 83 E3 30.11S HAVELOCK CLOUDY 74 66 76 NE12 30.09R KENANSVILLE N/A 70 64 81 CALM 30.10S KINSTON NOT AVBL NEW BERN PTCLDY 71 63 75 NE8 30.10R RICHLANDS MOCLDY 70 63 78 N8 30.08S ROCKY MOUNT MOCLDY 68 63 84 CALM 30.11R WASHINGTON MOCLDY 69 66 90 CALM 30.10R WHITEVILLE MOCLDY 72 67 84 N3 30.07R $$ AMZ130-135-150-152-154-156-158-170-250-252-270-ANZ085-086-088-633-658-670-280300- MARINE OBSERVATIONS STATION/POSITION TIME TEMP WIND PRES WAVE SWELL AIR SEA DIR/SP/G HT/PER HT/PER (UTC) (F) (DEG/KT/KT) (MB) (FT/S) (FT/S) CHESAPEAKE LIGHT 0200 76 20/ 9/ 10 1020.3 64 E VA BEACH 0150 76 77 30/ 14/ 16 1018.7 4/ 9 3/ 9 DUCK 0100 76 78 30/ 15/ 17 1018.1 2 E DUCK 0111 78 N/A 4/ 5 2/13 OREGON INLET 0100 76 78 20/ 13/ 17 1018.5 13E OREGON INLT 0200 79 N/A 5/ 6 2/11 HATTERAS CG 0100 73 80 50/ 5/ 8 1017.6 DIAMOND BUOY 0150 77 81 30/ 12/ 14 1018.1 4/ 9 3/ 9 CAPE LOOKOUT 0200 75 20/ 8/ 10 1017.8 BEAUFORT LAB 0100 74 81 30/ 7/ 10 1017.2 30 SE NEW RVR IN 0108 78 82 60/ 12/ 17 1017.3 30 SE NEW RVR IN 0125 82 N/A 4/ 5 2/11 27 SE WRIGHTSVLE 0100 76 82 90/ 10/ 12 N/A 5 SE WRIGHTSVLE 0108 79 82 60/ 21/ 25 1016.8 225 S CAPE HAT 0150 80 84 90/ 8/ 10 1016.9 3/ 9 3/ 9 41 SE CHARLESTON 0150 81 85 20/ 6/ 8 1016.2 2/10 2/10 $$

USA.gov is the U.S. government's official web portal to all federal, state and local government web resources and services.